Regional Weather Roundup
Issued by NWS Albany, NY

Home | Current Version | Previous Version | Graphics & Text | Print | Product List | Glossary Off
Versions: 1 2 3 4 5 6 7 8 9 10 11 12 13 14 15 16 17 18 19 20 21 22 23 24 25 26 27 28 29 30 31 32 33 34 35 36 37 38 39 40 41 42 43 44 45 46 47 48 49 50

000
ASUS41 KALY 171810
RWRALY

NEW YORK STATE HOURLY WEATHER ROUNDUP
NATIONAL WEATHER SERVICE ALBANY NY
200 PM EDT THU AUG 17 2017

NOTE: "FAIR" INDICATES FEW OR NO CLOUDS BELOW 12,000 FEET WITH NO
SIGNIFICANT WEATHER AND/OR NO OBSTRUCTIONS TO VISIBILITY.

NYZ032-033-038>043-046>054-057>066-NYZ062>081-082-084-171900-
EAST


CITY           SKY/WX    TMP DP  RH WIND       PRES   REMARKS
ALBANY         PTSUNNY   78  51  38 NW5       30.03F
GLENS FALLS    MOSUNNY   76  49  38 SW3       30.02F
POUGHKEEPSIE   SUNNY     78  57  48 CALM      30.02F
NEWBURGH       MOSUNNY   77  61  57 CALM      30.05F
MONTGOMERY     SUNNY     79  60  52 E5        30.03F
WHITE PLAINS   MOSUNNY   80  57  45 E6        30.03F
ISLIP          PTSUNNY   79  52  38 S9        30.04F
NEW YORK CITY  MOSUNNY   79  65  62 NE9       30.02F
CENTRAL PARK   SUNNY     82  61  48 VRB3      30.05F
$$

NYZ005>009-017-018-044>046-055-056-171900-
CENTRAL


CITY           SKY/WX    TMP DP  RH WIND       PRES   REMARKS
FULTON         SUNNY     76  53  44 S7        30.00F
SYRACUSE       PTSUNNY   79  57  46 NE7       29.98F
ROME           SUNNY     79  47  32 SE7       30.02F
ELMIRA         MOSUNNY   83  63  50 VRB3      29.97F
BINGHAMTON     PTSUNNY   74  59  59 S6        30.04F
MONTICELLO     SUNNY     76  59  55 S3        30.07F
$$

NYZ026>034-041>043-087-171900-
NORTH


CITY           SKY/WX    TMP DP  RH WIND       PRES   REMARKS
WATERTOWN      SUNNY     78  55  44 CALM      30.00F
FORT DRUM      NOT AVBL
OGDENSBURG     FAIR      80  55  42 S3        30.01F
MASSENA        MOSUNNY   77  57  50 SW7       30.01F
SARANAC LAKE   MOSUNNY   72  51  47 VRB6      30.03F
PLATTSBURGH    PTSUNNY   75  57  53 E9        30.00F
$$

NYZ001>004-010>016-019>021-085-171900-
WEST


CITY           SKY/WX    TMP DP  RH WIND       PRES   REMARKS
NIAGARA FALLS  CLOUDY    81  61  50 E9        29.91F
BUFFALO        CLOUDY    81  61  50 E8        29.93F
DUNKIRK        MOSUNNY   85  67  54 SW9       29.90F
JAMESTOWN      MOSUNNY   81  65  58 S10G21    29.97F
WELLSVILLE     MOSUNNY   83  63  50 S8        30.03F
ROCHESTER      PTSUNNY   78  61  55 SE6       29.96F
PENN YAN       MOSUNNY   81  60  48 CALM      29.99F
$$

             KEY
       WCI = WIND CHILL INDEX
       VSB = VISIBILITY
       HX  = HEAT INDEX
$$



USA.gov is the U.S. government's official web portal to all federal, state and local government web resources and services.